TimeEST,TemperatureF,Dew PointF,Humidity,Sea Level PressureIn,VisibilityMPH,Wind Direction,Wind SpeedMPH,Gust SpeedMPH,PrecipitationIn,Events,Conditions,WindDirDegrees,DateUTC
12:56 AM,51.1,45.0,80,30.21,10.0,ENE,8.1,-,N/A,,Overcast,70,2012-11-15 05:56:00
1:56 AM,50.0,46.0,86,30.19,10.0,ENE,10.4,-,0.00,,Overcast,60,2012-11-15 06:56:00
2:34 AM,50.0,46.4,87,30.19,7.0,NNE,6.9,-,0.04,Rain,Light Rain,30,2012-11-15 07:34:00
2:56 AM,50.0,46.9,89,30.19,10.0,NNE,6.9,-,0.04,,Overcast,20,2012-11-15 07:56:00
3:56 AM,50.0,46.0,86,30.18,10.0,NE,8.1,-,N/A,,Overcast,40,2012-11-15 08:56:00
4:10 AM,50.0,46.4,87,30.20,10.0,North,6.9,-,N/A,,Overcast,360,2012-11-15 09:10:00
4:56 AM,50.0,46.0,86,30.21,10.0,NNE,9.2,-,N/A,,Overcast,20,2012-11-15 09:56:00
5:42 AM,48.2,46.4,93,30.21,4.0,NNE,12.7,-,0.04,Rain,Light Rain,20,2012-11-15 10:42:00
5:44 AM,48.2,46.4,93,30.21,4.0,NNE,11.5,-,0.04,Rain,Light Rain,30,2012-11-15 10:44:00
5:56 AM,48.9,46.0,90,30.22,10.0,North,10.4,-,0.04,,Overcast,10,2012-11-15 10:56:00
6:16 AM,48.2,46.4,93,30.22,9.0,North,8.1,-,N/A,,Overcast,10,2012-11-15 11:16:00
6:56 AM,46.9,45.0,93,30.25,3.0,North,12.7,-,0.11,Rain,Heavy Rain,10,2012-11-15 11:56:00
7:56 AM,46.0,43.0,89,30.25,4.0,NNE,12.7,-,0.03,,Overcast,30,2012-11-15 12:56:00
8:56 AM,46.0,43.0,89,30.24,10.0,NE,12.7,-,0.01,,Overcast,40,2012-11-15 13:56:00
9:37 AM,46.4,44.6,93,30.24,3.0,North,8.1,-,0.01,Rain,Rain,350,2012-11-15 14:37:00
9:56 AM,46.9,45.0,93,30.25,3.0,North,8.1,-,0.09,Rain,Rain,360,2012-11-15 14:56:00
10:03 AM,46.4,44.6,93,30.23,4.0,NNE,9.2,-,0.02,Rain,Rain,20,2012-11-15 15:03:00
10:32 AM,48.2,44.6,87,30.24,10.0,NNW,6.9,-,0.06,Rain,Rain,340,2012-11-15 15:32:00
10:56 AM,48.9,46.0,90,30.23,10.0,North,9.2,-,0.06,,Overcast,360,2012-11-15 15:56:00
11:56 AM,50.0,46.9,89,30.22,10.0,North,12.7,-,N/A,,Overcast,360,2012-11-15 16:56:00
12:56 PM,50.0,46.9,89,30.21,10.0,North,8.1,-,N/A,,Overcast,360,2012-11-15 17:56:00
1:56 PM,48.9,46.0,90,30.20,10.0,North,11.5,-,N/A,,Overcast,360,2012-11-15 18:56:00
2:56 PM,48.9,46.0,90,30.20,5.0,North,9.2,-,N/A,,Overcast,360,2012-11-15 19:56:00
3:56 PM,48.0,46.0,93,30.20,6.0,NNE,11.5,-,N/A,,Overcast,20,2012-11-15 20:56:00
4:56 PM,48.0,45.0,89,30.21,7.0,North,10.4,-,N/A,,Overcast,360,2012-11-15 21:56:00
5:56 PM,46.9,44.1,90,30.22,10.0,NNE,12.7,-,N/A,,Overcast,20,2012-11-15 22:56:00
6:56 PM,46.9,44.1,90,30.23,9.0,North,9.2,-,N/A,,Overcast,10,2012-11-15 23:56:00
7:56 PM,46.0,43.0,89,30.24,10.0,NNE,10.4,-,N/A,,Overcast,20,2012-11-16 00:56:00
8:56 PM,46.9,44.1,90,30.24,10.0,NNE,9.2,-,N/A,,Overcast,20,2012-11-16 01:56:00
9:08 PM,46.4,44.6,93,30.24,10.0,NE,13.8,-,N/A,,Overcast,40,2012-11-16 02:08:00
9:56 PM,46.0,44.1,93,30.25,8.0,NNE,11.5,-,N/A,,Overcast,20,2012-11-16 02:56:00
10:56 PM,46.0,44.1,93,30.23,7.0,NNE,9.2,-,N/A,,Overcast,20,2012-11-16 03:56:00
11:56 PM,46.0,45.0,96,30.22,9.0,NNE,6.9,-,N/A,,Overcast,20,2012-11-16 04:56:00